Hourly Data Report for September 09, 2017

All times are specified in Local Standard Time (LST). Add 1 hour to adjust for Daylight Saving Time where and when it is observed.

ALERT CLIMATE
NUNAVUT

82°30'00.000" N
62°20'00.000" W
65.40 m
2400305
71355
ZLT

Download Data

Hourly Data (September 2017)
Hourly Data Report for September 9, 2017
Temp Definition
°C
Dew Point Temp Definition
°C
Rel Hum Definition
%
Wind Dir Definition
10's deg

Wind Spd Definition
km/h
Visibility Definition
km
Stn Press Definition
kPa
Hmdx Definition


Wind Chill Definition


Weather Definition


TIME
00:00 -8.9 -13.2 71 26 10   99.84   -14 LegendNANA
01:00 -7.9 -12.6 69 24 9   99.79   -12 LegendNANA
02:00 -6.2 -11.4 67 25 6   99.73   -9 LegendNANA
03:00 -8.3 -12.4 72 29 12   99.69   -14 LegendNANA
04:00 -7.3 -12.4 67 26 7   99.66   -11 LegendNANA
05:00 -8.5 -12.0 75 12 7   99.63   -12 LegendNANA
06:00 -6.7 -12.3 64 15 1   99.59   -7 LegendNANA
07:00 -7.6 -12.6 67 28 5   99.56   -10 LegendNANA
08:00 -7.3 -12.9 64 27 4   99.50   -9 LegendNANA
09:00 -8.1 -12.4 71 27 9   99.45   -13 LegendNANA
10:00 -6.9 -12.4 65 27 2   99.41   -8 LegendNANA
11:00 -8.5 -12.8 71 12 5   99.35   -11 LegendNANA
12:00 -6.8 -12.9 62 0 1   99.31   -7 LegendNANA
13:00 -7.7 -11.8 73 0 1   99.28   -8 LegendNANA
14:00 -9.3 -12.9 75 29 3   99.26   -11 LegendNANA
15:00 -9.1 -12.1 78 25 1   99.23   -10 LegendNANA
16:00 -9.6 -13.8 72 32 4   99.18   -12 LegendNANA
17:00 -9.9 -12.5 81 29 4   99.15   -12 LegendNANA
18:00 -10.4 -12.6 84 29 5   99.12   -13 LegendNANA
19:00 -11.3 -13.9 81 10 8   99.11   -16 LegendNANA
20:00 -10.7 -13.4 81 8 3   99.09   -13 LegendNANA
21:00 -10.7 -12.7 85   0   99.06     LegendNANA
22:00 -12.5 -14.5 85 28 6   99.04   -16 LegendNANA
23:00 -13.4 -14.6 91 29 4   99.05   -16 LegendNANA

Notes on Data Quality.

Legend

  • E = Estimated
  • M = Missing
  • NA = Not Available
  • ‡ = Partner data that is not subject to review by the National Climate Archives
Date modified: